[[{"header":{"parameterUnit":"m.s-1","parameterCategory":1,"la1":30.2991,"la2":30.254,"lo1":-89.0895,"lo2":-89.0444,"dy":0.0017,"dx":0.0017,"nx":28,"ny":28,"refTime":"2023-10-22T09:00:00:Z","depth":0,"parameterNumber":2,"parameterNumberName":"U-component_of_WINDS"},"data":[0,0,0,0,0,0,0,0,0,0,0,0,0,0,0,0,0,0,0,0,0,0,0,0,0,0,0,0,0,0,0,0,0,0,0,0,0,0,0,0,0,0,0,0,0,0,0,0,0,0,0,0,0,0,0,0,0,0,-0.9163,-0.9163,0,-0.9142,-0.9142,-0.9142,-0.9089,-0.9088,-0.9087,-0.9086,-0.9065,-0.9066,-0.9067,0,0,0,0,0,0,0,0,0,0,0,0,0,-0.9157,-0.9157,-0.9163,-0.9163,-0.9163,-0.9142,-0.9142,-0.9142,-0.9089,-0.9088,-0.9086,-0.9085,-0.9065,-0.9066,-0.9067,0,0,0,0,0,0,0,0,0,0,0,0,0,-0.915,-0.9158,-0.9163,-0.9134,-0.9131,-0.9142,-0.9142,-0.9142,-0.9089,-0.9088,-0.9086,-0.9084,-0.9065,-0.9066,-0.9067,-0.9105,0,0,-0.9069,-0.9069,0,0,0,0,0,0,0,0,-0.9151,-0.9151,-0.9138,-0.9136,-0.9133,-0.9116,-0.9133,-0.913,-0.909,-0.9105,-0.9086,-0.9084,-0.9084,-0.9083,-0.9083,-0.9104,-0.9103,-0.9069,-0.907,-0.907,-0.907,0,0,0,0,0,0,0,-0.9151,-0.9151,-0.9155,-0.9138,-0.9135,-0.9122,-0.9119,-0.9132,-0.9104,-0.9104,-0.91,-0.9098,-0.9082,-0.9082,-0.9082,-0.9103,-0.9069,-0.907,-0.907,-0.9071,-0.9155,-0.9156,0,0,0,0,0,0,-0.9156,-0.9152,-0.9156,-0.9154,-0.9138,-0.9123,-0.912,-0.9123,-0.9104,-0.9099,-0.91,-0.9096,-0.9082,-0.9081,-0.9081,-0.9125,-0.907,-0.9071,-0.9071,-0.9153,-0.9155,-0.9157,0,0,0,0,0,0,-0.9156,-0.9157,-0.9156,-0.9152,-0.9151,-0.9125,-0.9129,-0.9124,-0.9124,-0.9101,-0.9096,-0.9105,-0.908,-0.908,-0.9099,-0.9123,-0.9071,-0.9072,-0.9151,-0.9153,-0.9156,-0.9213,0,0,0,0,0,0,-0.9156,-0.9157,-0.9172,-0.9153,-0.9151,-0.9175,-0.9131,-0.9125,-0.9125,-0.912,-0.9104,-0.91,-0.9079,-0.9099,-0.91,-0.9123,-0.9072,-0.9148,-0.9152,-0.9155,-0.9209,-0.9217,-0.9224,0,0,0,0,0,-0.9156,-0.9189,-0.9173,-0.9173,-0.9169,-0.9177,-0.9176,-0.9151,-0.9128,-0.9142,-0.9127,-0.9101,-0.912,-0.9101,-0.9102,-0.9126,-0.9147,-0.9151,-0.9155,-0.9205,-0.9215,-0.9224,0,0,0,0,0,0,-0.9212,-0.9186,-0.9168,-0.9195,-0.9188,-0.9168,-0.9185,-0.9162,-0.9162,-0.9157,-0.9126,-0.9123,-0.9147,-0.9138,-0.9117,-0.9162,-0.9129,-0.9134,-0.9167,-0.9176,-0.9184,-0.9186,-0.9073,0,0,0,0,0,-0.9227,-0.9235,-0.9212,-0.9239,-0.9236,-0.9211,-0.9214,-0.9195,-0.9187,-0.9184,-0.917,-0.9163,-0.9168,-0.9172,-0.9175,-0.9207,-0.9202,-0.9224,-0.9232,-0.9238,-0.9242,-0.9258,-0.9267,-0.917,-0.917,-0.917,0,0,-0.9259,-0.9246,-0.9253,-0.925,-0.9242,-0.9251,-0.9209,-0.9221,-0.9228,-0.9186,-0.9203,-0.9193,-0.9183,-0.9209,-0.922,-0.9203,-0.9268,-0.9243,-0.9248,-0.9249,-0.9263,-0.9273,-0.9281,-0.9173,-0.9172,-0.9172,0,0,-0.9322,-0.9313,-0.9334,-0.9327,-0.9316,-0.9299,-0.9304,-0.9287,-0.9278,-0.9295,-0.9263,-0.9271,-0.9279,-0.9274,-0.9272,-0.9332,-0.9308,-0.9334,-0.9375,-0.939,-0.9398,-0.9405,-0.9426,-0.9434,-0.9338,-0.9338,-0.9338,0,-0.9364,-0.9376,-0.9348,-0.9361,-0.9361,-0.9322,-0.9343,-0.9338,-0.9329,-0.9329,-0.931,-0.9319,-0.931,-0.9334,-0.9348,-0.9348,-0.9353,-0.9336,-0.9399,-0.9406,-0.9411,-0.9431,-0.944,-0.9341,-0.9341,-0.9341,-0.934,0,-0.9428,-0.9437,-0.9455,-0.9446,-0.9448,-0.9465,-0.9439,-0.9444,-0.9424,-0.9409,-0.9427,-0.9414,-0.9414,-0.9418,-0.9399,-0.9439,-0.9428,-0.9405,-0.9371,-0.9424,-0.9443,-0.945,-0.9346,-0.9345,-0.9344,-0.9343,0,0,-0.9527,-0.9501,-0.9508,-0.9503,-0.9488,-0.9495,-0.951,-0.9509,-0.9513,-0.9508,-0.952,-0.9528,-0.9505,-0.9503,-0.9484,-0.9498,-0.9546,-0.9472,-0.9471,-0.9486,-0.9588,-0.9606,-0.9616,-0.9529,-0.9531,-0.9532,-0.9589,0,-0.9586,-0.961,-0.9585,-0.9614,-0.9622,-0.9585,-0.9598,-0.959,-0.9577,-0.9581,-0.9566,-0.9572,-0.9542,-0.9541,-0.9553,-0.9537,-0.9566,-0.9533,-0.954,-0.9541,-0.9544,-0.9625,-0.9645,-0.9699,-0.9596,-0.9597,-0.9598,0,-0.9659,-0.9656,-0.9687,-0.9669,-0.9671,-0.9683,-0.968,-0.9685,-0.9675,-0.9664,-0.9661,-0.9637,-0.965,-0.9617,-0.9636,-0.9614,-0.9615,-0.9608,-0.9609,-0.9609,-0.9573,-0.9628,-0.9716,-0.9725,-0.9609,-0.9608,-0.9607,0,-0.9728,-0.9732,-0.975,-0.9748,-0.9727,-0.9736,-0.9728,-0.9716,-0.9717,-0.9714,-0.9714,-0.9713,-0.9713,-0.9712,-0.9689,-0.9667,-0.971,-0.9675,-0.9701,-0.9702,-0.9712,-0.9712,-0.9803,-0.9713,-0.9713,-0.9713,-0.9713,0,-0.9797,-0.9817,-0.9781,-0.9793,-0.9814,-0.9784,-0.9806,-0.9794,-0.9783,-0.9792,-0.976,-0.9768,-0.9736,-0.9742,-0.9723,-0.9741,-0.9741,-0.9732,-0.9727,-0.9735,-0.9736,-0.9736,-0.9732,-0.9715,-0.9714,-0.9714,-0.9714,0,-0.9878,-0.9855,-0.9872,-0.9851,-0.9846,-0.9863,-0.9844,-0.9854,-0.9837,-0.9849,-0.985,-0.9824,-0.9828,-0.9804,-0.9805,-0.9792,-0.9819,-0.9808,-0.9823,-0.9819,-0.9847,-0.9845,-0.9941,-0.9952,-0.9855,-0.9856,-0.9857,0,-0.9924,-0.9939,-0.9919,-0.9922,-0.9915,-0.9921,-0.9921,-0.9892,-0.9893,-0.9882,-0.9894,-0.9895,-0.9895,-0.9904,-0.9885,-0.9885,-0.9873,-0.9907,-0.9873,-0.9881,-0.9874,-0.9874,-0.9875,-0.9914,-0.9916,-0.9917,-0.9917,0,-1.0009,-0.9996,-0.9998,-0.9995,-0.9996,-0.9993,-0.9987,-0.9992,-0.996,-0.9964,-0.9967,-0.9967,-0.9967,-0.9969,-0.9965,-0.9956,-0.9932,-0.9928,-0.9934,-0.9943,-0.9951,-0.9947,-0.9842,-0.9926,-0.9925,-0.9925,-0.9924,-0.9924,-1.0074,-1.0085,-1.0072,-1.0074,-1.0067,-1.0062,-1.007,-1.0054,-1.0057,-1.0054,-1.0037,-1.0044,-1.0032,-1.0024,-1.0018,-1.0023,-1.0007,-1.0016,-1.0019,-1.0021,-1.0026,-0.995,-1.0023,-1.0022,-1.0022,-1.0022,-1.0022,0,-1.0156,-1.0146,-1.0149,-1.0142,-1.0144,-1.0119,-1.0112,-1.0115,-1.0122,-1.0113,-1.0113,-1.0117,-1.0119,-1.01,-1.0099,-1.0107,-1.0095,-1.0108,-1.0107,-1.0105,-1.0041,-1.0035,-1.0117,-1.0117,-1.0117,-1.0117,-1.0117,-1.0117,-1.02,-1.0217,-1.0202,-1.0215,-1.0205,-1.0211,-1.0209,-1.0204,-1.0197,-1.0203,-1.0204,-1.0191,-1.0179,-1.0176,-1.0177,-1.0171,-1.0172,-1.0188,-1.0179,-1.0119,-1.011,-1.0101,-1.0096,-1.0189,-1.0189,-1.0243,-1.0244,-1.0244]},{"header":{"parameterUnit":"m.s-1","parameterCategory":1,"la1":30.2991,"la2":30.254,"lo1":-89.0895,"lo2":-89.0444,"dy":0.0017,"dx":0.0017,"nx":28,"ny":28,"refTime":"2023-10-22T09:00:00:Z","depth":0,"parameterNumber":3,"parameterNumberName":"V-component_of_WINDS"},"data":[0,0,0,0,0,0,0,0,0,0,0,0,0,0,0,0,0,0,0,0,0,0,0,0,0,0,0,0,0,0,0,0,0,0,0,0,0,0,0,0,0,0,0,0,0,0,0,0,0,0,0,0,0,0,0,0,0,0,-0.9634,-0.9634,0,-0.9646,-0.9646,-0.9646,-0.9635,-0.9635,-0.9634,-0.9634,-0.9644,-0.9645,-0.9646,0,0,0,0,0,0,0,0,0,0,0,0,0,-0.9601,-0.9602,-0.9634,-0.9634,-0.9635,-0.9646,-0.9646,-0.9646,-0.9635,-0.9635,-0.9634,-0.9634,-0.9644,-0.9645,-0.9646,0,0,0,0,0,0,0,0,0,0,0,0,0,-0.9614,-0.9602,-0.9634,-0.9631,-0.963,-0.9646,-0.9646,-0.9646,-0.9635,-0.9635,-0.9634,-0.9634,-0.9644,-0.9645,-0.9646,-0.9665,0,0,-0.9649,-0.9649,0,0,0,0,0,0,0,0,-0.9614,-0.9616,-0.9631,-0.9631,-0.9631,-0.9638,-0.9638,-0.9652,-0.9636,-0.9633,-0.9634,-0.9633,-0.9643,-0.9644,-0.9647,-0.9666,-0.9666,-0.9649,-0.965,-0.965,-0.965,0,0,0,0,0,0,0,-0.9613,-0.9615,-0.9639,-0.9631,-0.9631,-0.9628,-0.9629,-0.9641,-0.9642,-0.9634,-0.9633,-0.9634,-0.9643,-0.9647,-0.9648,-0.9666,-0.9649,-0.965,-0.9651,-0.9651,-0.97,-0.9701,0,0,0,0,0,0,-0.9613,-0.9614,-0.9638,-0.9639,-0.9621,-0.9629,-0.963,-0.9637,-0.9641,-0.9642,-0.9635,-0.9634,-0.9645,-0.9646,-0.9648,-0.967,-0.965,-0.9651,-0.9652,-0.9699,-0.97,-0.9701,0,0,0,0,0,0,-0.9612,-0.9615,-0.9638,-0.9627,-0.9629,-0.963,-0.9637,-0.9637,-0.9641,-0.9643,-0.9642,-0.9639,-0.9645,-0.9647,-0.9661,-0.967,-0.9652,-0.9653,-0.9698,-0.9699,-0.97,-0.9715,0,0,0,0,0,0,-0.9611,-0.9615,-0.9622,-0.9627,-0.963,-0.9651,-0.9638,-0.9638,-0.9643,-0.9642,-0.9646,-0.9646,-0.9644,-0.9659,-0.9662,-0.9671,-0.9653,-0.9697,-0.9699,-0.97,-0.9714,-0.9716,-0.9719,0,0,0,0,0,-0.961,-0.9626,-0.9623,-0.9626,-0.964,-0.9652,-0.9653,-0.9651,-0.9644,-0.9651,-0.9652,-0.9646,-0.9669,-0.9661,-0.9664,-0.9674,-0.9697,-0.9698,-0.97,-0.9713,-0.9716,-0.9719,0,0,0,0,0,0,-0.9622,-0.9626,-0.9623,-0.9641,-0.9646,-0.965,-0.9659,-0.9655,-0.9662,-0.966,-0.9657,-0.9658,-0.9673,-0.9675,-0.9666,-0.9692,-0.9682,-0.9684,-0.969,-0.9694,-0.9696,-0.9695,-0.9654,0,0,0,0,0,-0.9627,-0.9637,-0.964,-0.9655,-0.9658,-0.9658,-0.9663,-0.9661,-0.9666,-0.9668,-0.967,-0.9675,-0.9683,-0.9688,-0.9696,-0.9714,-0.9715,-0.9722,-0.9725,-0.9727,-0.9729,-0.9738,-0.9741,-0.9706,-0.9706,-0.9706,0,0,-0.9637,-0.964,-0.9647,-0.9658,-0.9662,-0.9671,-0.966,-0.9671,-0.9678,-0.967,-0.9683,-0.9685,-0.969,-0.9706,-0.9713,-0.9708,-0.9739,-0.9729,-0.9731,-0.9731,-0.974,-0.9743,-0.9746,-0.9707,-0.9707,-0.9707,0,0,-0.9659,-0.9664,-0.9677,-0.9681,-0.9687,-0.9687,-0.969,-0.9694,-0.9695,-0.9709,-0.9703,-0.9711,-0.9725,-0.9729,-0.9732,-0.9757,-0.9751,-0.9759,-0.9772,-0.9781,-0.9784,-0.9786,-0.9794,-0.9797,-0.9761,-0.9761,-0.9761,0,-0.9671,-0.9686,-0.9684,-0.9695,-0.97,-0.9693,-0.9706,-0.971,-0.9718,-0.9721,-0.9716,-0.9733,-0.9736,-0.9753,-0.9759,-0.9762,-0.9765,-0.9758,-0.9784,-0.9786,-0.9788,-0.9796,-0.9799,-0.9762,-0.9762,-0.9762,-0.9762,0,-0.9699,-0.971,-0.9719,-0.9728,-0.9734,-0.9746,-0.9745,-0.9751,-0.9749,-0.9749,-0.9763,-0.9766,-0.9774,-0.9778,-0.9775,-0.9794,-0.9791,-0.9784,-0.9774,-0.9793,-0.98,-0.9803,-0.9763,-0.9763,-0.9763,-0.9762,0,0,-0.9729,-0.9737,-0.974,-0.9744,-0.975,-0.9757,-0.9769,-0.9777,-0.9782,-0.9788,-0.9797,-0.9809,-0.9804,-0.9808,-0.9806,-0.9814,-0.9832,-0.9806,-0.9806,-0.981,-0.9852,-0.9856,-0.9859,-0.9828,-0.9829,-0.9829,-0.9851,0,-0.9752,-0.9773,-0.9771,-0.979,-0.9799,-0.9793,-0.9803,-0.9808,-0.9809,-0.9816,-0.9817,-0.9825,-0.9817,-0.982,-0.9827,-0.9828,-0.984,-0.9826,-0.9836,-0.9837,-0.9835,-0.9863,-0.9868,-0.9888,-0.9854,-0.9854,-0.9855,0,-0.9781,-0.9788,-0.9808,-0.9813,-0.9816,-0.9825,-0.9833,-0.984,-0.9845,-0.9845,-0.985,-0.9846,-0.9857,-0.9847,-0.9861,-0.9852,-0.9856,-0.9857,-0.9858,-0.9858,-0.9846,-0.9864,-0.9894,-0.9897,-0.9859,-0.9859,-0.9859,0,-0.98,-0.9815,-0.9829,-0.9832,-0.9838,-0.9844,-0.9846,-0.9851,-0.9856,-0.9862,-0.9865,-0.9872,-0.9876,-0.9881,-0.988,-0.9872,-0.9895,-0.9884,-0.9894,-0.9894,-0.9899,-0.9898,-0.993,-0.9902,-0.9902,-0.9902,-0.9902,0,-0.9825,-0.9838,-0.9837,-0.9846,-0.9859,-0.9857,-0.9871,-0.9872,-0.9876,-0.9884,-0.9879,-0.9887,-0.9885,-0.9892,-0.9891,-0.9903,-0.9905,-0.9905,-0.9904,-0.9905,-0.9905,-0.9907,-0.9905,-0.9903,-0.9903,-0.9903,-0.9903,0,-0.9849,-0.9849,-0.9864,-0.9868,-0.9869,-0.9879,-0.9882,-0.989,-0.989,-0.9901,-0.9903,-0.9904,-0.9912,-0.9911,-0.9921,-0.992,-0.9934,-0.9933,-0.9933,-0.9932,-0.9942,-0.9941,-0.9976,-0.998,-0.995,-0.9951,-0.9951,0,-0.9864,-0.9874,-0.9879,-0.9885,-0.9888,-0.9896,-0.9901,-0.99,-0.9905,-0.9911,-0.9918,-0.9926,-0.9933,-0.9946,-0.9947,-0.9954,-0.9952,-0.9964,-0.9953,-0.9953,-0.9951,-0.995,-0.9951,-0.9965,-0.9966,-0.9966,-0.9966,0,-0.9892,-0.9892,-0.9899,-0.9907,-0.9913,-0.9919,-0.9925,-0.9929,-0.9928,-0.9934,-0.9943,-0.9948,-0.9958,-0.9966,-0.9973,-0.9975,-0.997,-0.997,-0.9972,-0.9973,-0.9972,-0.9972,-0.9938,-0.9969,-0.9969,-0.9968,-0.9968,-0.9968,-0.9911,-0.9919,-0.9924,-0.9933,-0.9937,-0.9942,-0.9949,-0.9951,-0.9958,-0.9966,-0.9965,-0.9975,-0.9979,-0.9987,-0.999,-0.9997,-0.9993,-0.9997,-0.9998,-0.9999,-0.9999,-0.9972,-0.9999,-0.9999,-0.9998,-0.9998,-0.9998,0,-0.9938,-0.9941,-0.9949,-0.9957,-0.9963,-0.9959,-0.9965,-0.9971,-0.998,-0.9984,-0.9991,-1.0,-1.0008,-1.001,-1.0017,-1.0022,-1.002,-1.0024,-1.0023,-1.0024,-1.0003,-1.0,-1.0026,-1.0026,-1.0026,-1.0026,-1.0026,-1.0026,-0.9952,-0.9965,-0.9966,-0.998,-0.9983,-0.9993,-0.9997,-1.0001,-1.0005,-1.0016,-1.0022,-1.0024,-1.0027,-1.0034,-1.0041,-1.0041,-1.0044,-1.0048,-1.0047,-1.0028,-1.0025,-1.0023,-1.002,-1.0049,-1.0049,-1.0067,-1.0067,-1.0068]}]]